FW0225 Weather Reports


Display with metric or nautical units.
time (UTC)temp
F
wind
direction
speed
MPH
gust
MPH
rain 1hr
in
rain 24hr
in
rain mn
in
humidity
%
barometer
mb
20260507082026 66 229 1.0 4.0 0.00 3.98 0.00 81 1012.4
20260507081529 66 229 2.0 4.0 0.00 3.98 0.00 82 1012.4
20260507081031 65 232 1.0 4.0 0.00 3.98 0.00 84 1012.3
20260507080512 64 235 1.0 4.0 0.00 3.98 0.00 84 1012.3
20260507080024 64 236 2.0 4.0 0.00 4.49 0.00 85 1012.3
20260507075528 64 236 2.0 4.0 0.00 4.49 0.00 85 1012.3
20260507075030 64 232 2.0 5.0 0.00 4.49 0.00 85 1012.2
20260507074515 64 231 2.0 5.0 0.00 4.49 0.00 84 1012.3
20260507074015 65 247 1.0 3.0 0.00 4.49 0.00 84 1012.2
20260507073522 65 248 2.0 4.0 0.00 4.49 0.00 84 1012.2
20260507073015 65 248 1.0 4.0 0.00 4.49 0.00 84 1012.2
20260507072518 65 251 2.0 6.0 0.00 4.49 0.00 84 1012.2
20260507072018 64 263 2.0 6.0 0.00 4.49 0.00 84 1012.2
20260507071541 64 279 2.0 5.0 0.00 4.49 0.00 87 1012.1
20260507071019 63 288 0.0 2.0 0.00 4.49 0.00 89 1012.1
20260507070524 63 288 1.0 2.0 0.00 4.49 0.00 89 1012.0
20260507070015 62 287 1.0 2.0 0.00 6.42 0.00 90 1012.1
20260507065516 61 288 0.0 2.0 0.00 6.42 0.00 92 1012.1
20260507065015 61 288 0.0 2.0 0.00 6.42 0.00 92 1012.1
20260507064518 61 288 1.0 2.0 0.00 6.42 0.00 92 1012.0
20260507064016 61 288 1.0 3.0 0.00 6.42 0.00 92 1012.0
20260507063541 60 288 2.0 3.0 0.00 6.42 0.00 93 1012.0
20260507063032 60 285 2.0 3.0 0.00 6.42 0.00 94 1011.9
20260507062515 60 283 0.0 1.0 0.00 6.42 0.00 94 1011.9
20260507062013 59 283 0.0 1.0 0.00 6.42 0.00 94 1011.9
20260507061518 59 283 0.0 0.0 0.00 6.42 0.00 94 1011.9
20260507061019 59 283 0.0 0.0 0.00 6.42 0.00 94 1012.0
20260507060524 59 283 0.0 2.0 0.00 6.42 0.00 94 1012.0
20260507060015 59 283 0.0 3.0 0.00 6.42 0.00 94 1012.1
20260507055538 59 283 1.0 3.0 0.00 6.42 0.00 94 1012.0
20260507055039 59 283 1.0 4.0 0.00 6.42 0.00 95 1011.8
20260507054539 59 283 2.0 4.0 0.00 6.42 0.00 95 1011.8
20260507054022 59 279 1.0 3.0 0.00 6.42 0.00 95 1011.8
20260507053544 58 279 1.0 2.0 0.00 6.42 0.00 95 1011.7
20260507053015 58 279 1.0 3.0 0.00 6.42 0.00 95 1011.7
20260507052540 58 279 1.0 4.0 0.00 6.42 0.00 94 1011.7
20260507052020 58 278 2.0 4.0 0.00 6.42 0.00 94 1011.7
20260507051523 58 273 2.0 4.0 0.00 6.42 0.00 94 1011.6
20260507051022 58 270 2.0 4.0 0.00 6.42 0.00 94 1011.5
20260507050546 58 267 0.0 2.0 0.00 6.42 0.00 95 1011.5
20260507050016 58 267 0.0 2.0 0.00 6.42 0.00 94 1011.4
20260507045540 58 267 0.0 2.0 0.00 6.42 0.00 94 1011.3
20260507045019 58 267 0.0 3.0 0.00 6.42 0.00 94 1011.3
20260507044522 58 267 2.0 3.0 0.00 6.42 0.00 94 1011.2
20260507044019 58 265 1.0 3.0 0.00 6.42 0.00 94 1011.2
20260507043542 58 264 0.0 2.0 0.00 6.42 0.00 94 1011.2
20260507043031 58 264 1.0 2.0 0.00 6.42 0.00 94 1011.1
20260507042514 58 264 0.0 2.0 0.00 6.42 0.00 94 1011.1
20260507042033 58 264 0.0 1.0 0.00 6.42 0.00 94 1011.0
20260507041516 58 264 0.0 1.0 0.00 6.42 0.00 94 1011.1
20260507041035 58 264 0.0 2.0 0.00 6.42 0.00 94 1011.0
20260507040516 59 264 1.0 3.0 0.00 6.42 0.00 94 1010.9
20260507040027 59 263 0.0 4.0 0.00 6.42 0.00 94 1010.9
20260507035529 59 262 1.0 3.0 0.00 6.42 0.00 94 1010.9
20260507035014 59 262 0.0 3.0 0.00 6.42 0.00 94 1010.8
20260507034516 59 261 2.0 3.0 0.00 6.42 0.00 94 1010.8
20260507034016 59 260 0.0 3.0 0.00 6.42 0.00 94 1010.8
20260507033518 59 260 1.0 4.0 0.00 6.42 0.00 94 1010.7
20260507033029 59 259 2.0 4.0 0.00 6.42 0.00 94 1010.8
20260507032552 59 257 0.0 1.0 0.00 6.42 0.00 94 1010.8
20260507032030 59 257 0.0 0.0 0.00 6.42 0.00 94 1010.9
20260507031514 59 257 0.0 0.0 0.00 6.42 0.00 94 1010.8
20260507031013 60 257 0.0 1.0 0.00 6.42 0.00 94 1010.8
20260507030515 60 257 0.0 1.0 0.00 6.42 0.00 94 1010.8
20260507030048 60 257 0.0 2.0 0.00 6.46 0.00 94 1010.8
20260507025528 60 257 1.0 7.0 0.00 6.46 0.00 94 1010.7
20260507025029 60 257 3.0 7.0 0.00 6.46 0.00 94 1010.8
20260507024532 60 262 2.0 3.0 0.00 6.46 0.00 94 1010.7
20260507024032 60 261 0.0 3.0 0.00 6.46 0.00 94 1010.7
20260507023535 60 261 2.0 7.0 0.00 6.46 0.00 94 1010.7
20260507023026 60 261 3.0 7.0 0.00 6.46 0.00 95 1010.7
20260507022529 60 256 3.0 7.0 0.00 6.46 0.00 95 1010.7
20260507022014 59 252 4.0 7.0 0.00 6.46 0.00 95 1010.7
20260507021517 59 250 3.0 7.0 0.00 6.46 0.00 95 1010.7
20260507021016 59 246 2.0 4.0 0.00 6.46 0.00 95 1010.6
20260507020517 59 246 1.0 4.0 0.00 6.46 0.00 95 1010.7
20260507020029 59 246 2.0 4.0 0.00 6.54 0.00 95 1010.7
20260507015552 59 244 1.0 2.0 0.00 6.54 0.00 95 1010.7
20260507015031 59 244 1.0 2.0 0.00 6.54 0.00 95 1010.7
20260507014533 59 244 0.0 4.0 0.00 6.54 0.00 95 1010.7
20260507014031 59 244 1.0 4.0 0.00 6.54 0.00 95 1010.7
20260507013536 59 243 1.0 5.0 0.00 6.54 0.00 95 1010.8
20260507013025 59 244 2.0 5.0 0.00 6.54 0.00 95 1010.8
20260507012529 59 242 1.0 2.0 0.00 6.54 0.00 95 1010.7
20260507012030 59 242 0.0 1.0 0.00 6.54 0.00 95 1010.6
20260507011533 59 242 0.0 1.0 0.00 6.54 0.00 95 1010.7
20260507011033 59 242 0.0 2.0 0.00 6.54 0.00 95 1010.7
20260507010518 59 242 1.0 3.0 0.00 6.54 0.00 95 1010.7
20260507010030 59 242 1.0 3.0 0.00 8.82 0.00 95 1010.6
20260507005554 59 242 0.0 1.0 0.00 8.82 0.00 95 1010.6
20260507005013 59 242 0.0 1.0 0.00 8.82 0.00 95 1010.7
20260507004536 59 242 0.0 2.0 0.00 8.82 0.00 95 1010.6
20260507004017 59 242 0.0 2.0 0.00 8.82 0.00 95 1010.6
20260507003521 59 242 1.0 2.0 0.00 8.82 0.00 95 1010.7
20260507003014 59 242 0.0 2.0 0.00 8.82 0.00 95 1010.7
20260507002516 59 242 1.0 5.0 0.00 8.82 0.00 95 1010.7
20260507002015 59 242 1.0 5.0 0.00 8.82 0.00 95 1010.8
20260507001518 59 242 1.0 4.0 0.00 8.82 0.00 95 1010.8
20260507001018 59 242 1.0 4.0 0.00 8.82 0.00 95 1010.8
20260507000522 59 242 0.0 0.0 0.00 8.82 0.00 95 1010.8
20260507000014 59 242 0.0 0.0 0.00 9.76 0.00 95 1010.8
20260506235518 59 242 0.0 1.0 0.00 9.76 0.00 95 1010.8
20260506235018 59 242 0.0 2.0 0.00 9.76 0.00 95 1010.8
20260506234525 59 242 0.0 2.0 0.00 9.76 0.00 95 1010.8
20260506234026 59 242 0.0 2.0 0.00 9.76 0.00 95 1010.9
20260506233529 59 242 0.0 3.0 0.00 9.76 0.00 95 1010.9
20260506233020 59 242 2.0 4.0 0.00 9.76 0.00 95 1010.9
20260506232525 59 242 3.0 4.0 0.00 9.76 0.00 94 1011.0
20260506232045 59 243 1.0 2.0 0.00 9.76 0.00 94 1011.0
20260506231526 59 243 0.0 3.0 0.00 9.76 0.00 94 1011.1
20260506231047 59 243 1.0 3.0 0.00 9.76 0.00 94 1011.1
20260506230530 59 243 1.0 3.0 0.00 9.76 0.00 94 1011.1
20260506230022 59 243 0.0 2.0 0.00 9.76 0.00 94 1011.2
20260506225525 59 243 0.0 2.0 0.00 9.76 0.00 94 1011.2
20260506225024 59 243 0.0 2.0 0.00 9.76 0.00 94 1011.1
20260506224548 59 243 0.0 3.0 0.00 9.76 0.00 94 1011.1
20260506224026 59 243 1.0 5.0 0.00 9.76 0.00 94 1011.0
20260506223529 59 243 2.0 5.0 0.00 9.76 0.00 94 1011.0
20260506223019 59 239 2.0 8.0 0.00 9.76 0.00 94 1010.9
20260506222542 59 237 3.0 8.0 0.00 9.76 0.00 95 1011.0
20260506222021 59 229 2.0 5.0 0.04 9.76 0.00 95 1011.0
20260506221529 59 226 2.0 4.0 0.04 9.76 0.00 95 1011.0
20260506221031 59 225 2.0 3.0 0.04 9.76 0.00 95 1010.9
20260506220515 59 225 2.0 3.0 0.04 9.76 0.00 95 1010.9
20260506220028 59 225 0.0 4.0 0.04 9.76 2.48 95 1010.9
20260506215532 59 225 1.0 3.0 0.04 9.76 2.48 95 1010.9
20260506215053 59 225 0.0 2.0 0.04 9.76 2.48 95 1010.9
20260506214516 59 225 1.0 3.0 0.04 9.76 2.48 94 1010.9
20260506214033 59 225 1.0 3.0 0.04 9.76 2.48 94 1010.9
20260506213516 59 225 1.0 3.0 0.04 9.76 2.48 94 1010.9
20260506213027 59 225 1.0 3.0 0.04 9.76 2.48 94 1010.9
20260506212532 59 225 2.0 3.0 0.04 9.76 2.48 94 1010.9
20260506212013 59 225 1.0 2.0 0.00 9.72 2.47 94 1010.9
20260506211517 59 225 0.0 1.0 0.00 9.72 2.47 94 1010.9
20260506211021 59 225 1.0 3.0 0.00 9.72 2.47 94 1011.0
20260506210521 59 225 1.0 3.0 0.00 9.72 2.47 94 1011.0
20260506210033 59 225 1.0 3.0 0.00 9.72 2.47 94 1011.0
20260506205515 59 225 1.0 3.0 0.00 9.72 2.47 94 1011.0
20260506205015 59 225 1.0 4.0 0.00 9.72 2.47 94 1011.0
20260506204519 59 225 1.0 4.0 0.00 9.72 2.47 94 1011.0
20260506204017 59 225 1.0 2.0 0.00 9.72 2.47 94 1011.0
20260506203521 59 225 1.0 2.0 0.00 9.72 2.47 94 1011.0
20260506203013 59 225 1.0 3.0 0.00 9.72 2.47 94 1011.0
20260506202516 60 225 1.0 3.0 0.00 9.72 2.47 94 1011.0
20260506202015 60 225 1.0 3.0 0.00 9.72 2.47 94 1011.0
20260506201517 60 225 1.0 4.0 0.00 9.72 2.47 94 1011.0
20260506201015 60 225 1.0 4.0 0.00 9.72 2.47 94 1010.9
20260506200538 60 224 2.0 4.0 0.00 9.72 2.47 94 1010.8
20260506200029 60 224 3.0 4.0 0.00 9.76 2.47 94 1010.8
20260506195530 60 225 2.0 4.0 0.00 9.76 2.47 94 1010.7
20260506195014 60 224 1.0 2.0 0.00 9.76 2.47 94 1010.6
20260506194516 60 224 0.0 2.0 0.00 9.76 2.47 94 1010.6
20260506194016 60 224 1.0 2.0 0.00 9.76 2.47 94 1010.5
20260506193519 60 224 1.0 2.0 0.16 9.76 2.47 94 1010.4
20260506193033 61 224 1.0 2.0 0.31 9.76 2.47 94 1010.3
20260506192536 61 224 1.0 3.0 0.51 9.76 2.47 94 1010.3
20260506192014 61 224 2.0 3.0 0.55 9.76 2.47 94 1010.2
20260506191517 61 223 2.0 5.0 0.63 9.76 2.47 94 1010.1
20260506191036 61 223 1.0 5.0 1.06 9.76 2.47 94 1010.0
20260506190519 61 222 2.0 4.0 1.14 9.76 2.47 94 1009.9
20260506190032 61 222 1.0 6.0 1.14 9.84 2.47 94 1009.8
20260506185513 61 218 3.0 6.0 1.14 9.84 2.47 95 1009.7
20260506185013 60 216 2.0 5.0 1.14 9.84 2.47 94 1009.6
20260506184536 60 216 1.0 4.0 1.14 9.84 2.47 94 1009.5
20260506184033 60 216 1.0 3.0 1.14 9.84 2.47 94 1009.3
20260506183515 60 215 0.0 1.0 0.98 9.69 2.43 94 1009.4
20260506183048 60 215 1.0 1.0 0.83 9.53 2.39 94 1009.5
20260506182530 60 215 0.0 2.0 0.63 9.33 2.34 94 1009.2
20260506182030 60 215 1.0 2.0 0.59 9.29 2.33 94 1009.4
20260506181534 60 215 0.0 2.0 0.47 9.17 2.30 94 1009.6
20260506181013 61 215 0.0 0.0 0.04 8.74 2.19 94 1009.6
20260506180518 60 215 0.0 1.0 0.04 8.70 2.18 94 1009.7
20260506180013 61 215 0.0 1.0 0.08 8.74 2.18 94 1009.7
20260506175516 61 215 0.0 1.0 1.14 8.74 2.18 93 1009.6
20260506175037 61 215 0.0 2.0 1.42 8.74 2.18 93 1009.6
20260506174520 61 215 1.0 2.0 1.46 8.74 2.18 93 1009.7
20260506174019 61 215 1.0 2.0 1.46 8.74 2.18 93 1009.6
20260506173522 61 215 1.0 3.0 1.46 8.74 2.18 93 1009.6
20260506173013 61 215 2.0 5.0 1.46 8.74 2.18 92 1009.6
20260506172516 61 215 2.0 6.0 1.46 8.74 2.18 92 1009.5
20260506172017 61 215 3.0 10.0 1.46 8.74 2.18 92 1009.5
20260506171519 61 214 4.0 16.0 1.46 8.74 2.18 92 1009.4
20260506171019 61 194 8.0 16.0 1.46 8.74 2.18 92 1009.2
20260506170522 61 200 3.0 8.0 1.42 8.70 2.17 93 1009.2
20260506170014 61 200 4.0 8.0 1.34 8.90 2.16 93 1009.1
20260506165516 61 240 0.0 0.0 0.24 7.80 1.87 94 1008.9
20260506165014 61 240 0.0 0.0 0.04 7.60 1.82 94 1008.7
20260506164522 62 240 0.0 0.0 0.00 7.56 1.81 93 1008.7
20260506164024 62 240 0.0 0.0 0.00 7.56 1.81 93 1008.7
20260506163528 62 240 0.0 0.0 0.00 7.56 1.81 93 1008.8
20260506163042 62 240 0.0 0.0 0.00 7.56 1.81 93 1008.9
20260506162523 62 240 0.0 0.0 0.00 7.56 1.81 93 1009.1
20260506162024 62 240 0.0 0.0 0.00 7.56 1.81 93 1009.1
20260506161549 62 240 0.0 0.0 0.00 7.56 1.81 93 1009.1
20260506161029 62 240 0.0 0.0 0.00 7.56 1.81 94 1009.1
20260506160513 62 240 0.0 0.0 0.00 7.56 1.81 94 1009.2
20260506160026 62 240 0.0 1.0 0.00 7.72 1.81 94 1009.2
20260506155530 62 240 0.0 1.0 0.00 7.72 1.81 94 1009.2
20260506155031 62 240 0.0 0.0 0.00 7.72 1.81 94 1009.3
20260506154515 62 240 0.0 0.0 0.00 7.72 1.81 94 1009.4
20260506154016 62 240 0.0 0.0 0.00 7.72 1.81 94 1009.4
20260506153518 62 240 0.0 0.0 0.00 7.72 1.81 94 1009.5
20260506153013 62 240 0.0 0.0 0.00 7.72 1.81 94 1009.6
20260506152515 62 240 0.0 0.0 0.00 7.72 1.81 94 1009.7
20260506152035 62 240 0.0 1.0 0.00 7.72 1.81 94 1009.7
20260506151519 62 240 0.0 1.0 0.00 7.72 1.81 94 1009.7
20260506151019 62 240 0.0 1.0 0.00 7.72 1.81 94 1009.9
20260506150521 62 240 0.0 1.0 0.00 7.72 1.81 94 1009.8
20260506150013 62 240 0.0 1.0 0.00 7.83 1.81 94 1009.9
20260506145537 62 240 0.0 1.0 0.00 7.83 1.81 94 1009.9
20260506145014 61 240 0.0 2.0 0.00 7.83 1.81 94 1010.0
20260506144519 61 240 0.0 2.0 0.00 7.83 1.81 94 1010.0
20260506144021 61 240 1.0 2.0 0.00 7.83 1.81 94 1010.0
20260506143525 61 240 1.0 2.0 0.00 7.83 1.81 94 1010.1
20260506143018 61 240 0.0 1.0 0.00 7.83 1.81 94 1010.0
20260506142519 61 240 0.0 1.0 0.00 7.83 1.81 94 1010.1
20260506142037 61 240 0.0 0.0 0.00 7.83 1.81 94 1010.1
20260506141520 61 240 0.0 0.0 0.00 7.83 1.81 94 1010.2
20260506141019 61 240 0.0 0.0 0.00 7.83 1.81 94 1010.3
20260506140521 61 240 0.0 0.0 0.00 7.83 1.81 94 1010.3
20260506140015 61 240 0.0 1.0 0.00 7.83 1.81 94 1010.3
20260506135536 61 240 0.0 1.0 0.00 7.83 1.81 93 1010.4
20260506135035 61 240 0.0 1.0 0.00 7.83 1.81 93 1010.5
20260506134518 61 240 0.0 1.0 0.04 7.83 1.81 93 1010.5
20260506134036 61 240 0.0 1.0 0.04 7.83 1.81 93 1010.5
20260506133518 61 240 0.0 2.0 0.08 7.83 1.81 93 1010.6
20260506133030 60 240 1.0 2.0 0.20 7.83 1.81 93 1010.7
20260506132513 60 240 1.0 3.0 0.31 7.83 1.81 93 1010.7
20260506132013 60 240 1.0 7.0 0.31 7.83 1.81 93 1010.8
20260506131516 60 241 3.0 7.0 0.31 7.83 1.81 93 1010.8
20260506131015 60 246 1.0 5.0 0.31 7.83 1.81 93 1010.9
20260506130539 60 246 1.0 5.0 0.35 7.83 1.81 94 1010.9
20260506130030 60 246 1.0 10.0 0.35 7.95 1.81 93 1010.9
20260506125513 60 247 4.0 12.0 0.39 7.95 1.81 93 1011.0
20260506125012 60 232 5.0 12.0 0.39 7.95 1.81 94 1010.9
20260506124538 60 255 2.0 4.0 0.39 7.91 1.80 94 1010.8
20260506124016 60 255 1.0 4.0 0.47 7.91 1.80 94 1010.7
20260506123519 60 254 2.0 4.0 0.43 7.83 1.78 94 1010.7
20260506123031 60 254 2.0 3.0 0.35 7.76 1.76 94 1010.8
20260506122513 60 254 0.0 2.0 0.24 7.64 1.73 94 1010.8
20260506122013 60 254 1.0 5.0 0.24 7.64 1.73 94 1010.7
20260506121515 60 254 3.0 5.0 0.24 7.64 1.73 94 1010.7
20260506121019 60 254 2.0 3.0 0.31 7.64 1.73 94 1010.7
20260506120543 60 254 1.0 3.0 0.31 7.60 1.72 94 1010.8
20260506120014 60 254 1.0 3.0 0.35 7.72 1.72 94 1010.8
20260506115538 60 254 1.0 4.0 0.31 7.68 1.71 94 1010.9
20260506115016 60 254 1.0 4.0 0.28 7.64 1.70 94 1010.9
20260506114518 60 255 1.0 3.0 0.28 7.64 1.70 94 1010.8
20260506114017 60 255 2.0 4.0 0.20 7.56 1.68 94 1010.9
20260506113539 59 255 1.0 4.0 0.16 7.52 1.67 94 1010.9
20260506113029 60 254 0.0 3.0 0.16 7.52 1.67 94 1010.9
20260506112513 60 254 2.0 3.0 0.16 7.52 1.67 94 1010.9
20260506112013 60 254 1.0 2.0 0.20 7.52 1.67 94 1010.9
20260506111516 60 254 1.0 2.0 0.20 7.48 1.66 94 1011.0
20260506111036 60 254 1.0 2.0 0.16 7.44 1.65 94 1010.9
20260506110538 60 254 1.0 3.0 0.16 7.40 1.64 94 1010.9
20260506110029 60 254 1.0 3.0 0.16 7.72 1.63 94 1011.0
20260506105514 59 254 1.0 3.0 0.16 7.72 1.63 94 1011.1
20260506105012 59 254 2.0 5.0 0.16 7.72 1.63 94 1011.1
20260506104517 59 254 2.0 5.0 0.16 7.72 1.63 93 1011.1
20260506104017 59 255 2.0 4.0 0.16 7.72 1.63 93 1011.1
20260506103519 59 254 1.0 3.0 0.16 7.72 1.63 93 1011.1
20260506103031 59 254 1.0 3.0 0.16 7.72 1.63 93 1011.1
20260506102518 59 254 1.0 4.0 0.16 7.72 1.63 93 1011.2
20260506102018 59 253 2.0 7.0 0.12 7.68 1.62 93 1011.2
20260506101522 60 252 3.0 8.0 0.08 7.64 1.61 93 1011.4
20260506101023 59 248 5.0 10.0 0.08 7.64 1.61 92 1011.4
20260506100525 60 263 5.0 10.0 0.04 7.60 1.60 93 1011.4
20260506100018 60 257 3.0 10.0 0.04 7.56 1.59 93 1011.5
20260506095521 60 261 3.0 10.0 0.08 7.56 1.59 94 1011.5
20260506095020 60 260 5.0 10.0 0.08 7.56 1.59 94 1011.4
20260506094523 60 264 5.0 10.0 0.08 7.56 1.59 95 1011.4
20260506094042 60 264 6.0 10.0 0.12 7.56 1.59 95 1011.4
20260506093525 60 229 2.0 5.0 0.16 7.56 1.59 95 1011.4
20260506093018 60 229 2.0 4.0 0.20 7.56 1.59 95 1011.4
20260506092543 60 227 2.0 5.0 0.24 7.56 1.59 95 1011.4
20260506092039 60 226 3.0 5.0 0.28 7.56 1.59 95 1011.4
20260506091520 60 223 1.0 3.0 0.31 7.56 1.59 95 1011.4
20260506091039 60 222 1.0 3.0 0.35 7.56 1.59 95 1011.4
20260506090522 60 222 1.0 3.0 0.43 7.56 1.59 95 1011.3
20260506090013 60 222 1.0 3.0 0.43 7.52 1.58 96 1011.3
20260506085518 59 222 1.0 3.0 0.51 7.48 1.57 95 1011.3
20260506085020 59 222 0.0 1.0 0.55 7.48 1.57 95 1011.3
20260506084523 59 222 0.0 2.0 0.59 7.48 1.57 95 1011.4
20260506084024 59 222 1.0 2.0 0.63 7.44 1.56 95 1011.4
20260506083526 58 222 0.0 0.0 0.63 7.40 1.55 95 1011.4
20260506083016 58 222 0.0 0.0 0.63 7.36 1.54 95 1011.4
20260506082519 58 222 0.0 0.0 0.63 7.32 1.53 95 1011.3